User: anonymous   Login
Location: Unspecified
(0.0000°N, 0.0000°E)
Time: 10:28:37
(UTC+01:00)
Language:

Coronas F rocket - Orbit

View from above orbital plane
View from above orbital plane
View from above satellite
View from above satellite

Ground track
Ground track

The orbit data is extracted from the following two-line orbital elements,

1 26874U 01032B   14298.82329468  .00024167  00000-0  35230-3 0  8321
2 26874 082.4739 206.1700 0011595 300.0295 059.9808 15.55472995741584
Epoch (UTC): 25 October 2014 19:45:32
Eccentricity: 0.0011595
inclination: 82.4739°
perigee height: 393 km
apogee height: 408 km
right ascension of ascending node: 206.1700°
argument of perigee: 300.0295°
revolutions per day: 15.55472995
mean anomaly at epoch: 59.9808°
orbit number at epoch: 74158

The dashed part of the orbit path shows where the satellite is in the earth's shadow,  

DLR